Wind_Speed
20 21 19 19 19 19 19 19 18 17 16 16 16 16 17 17 16 16 15 14 14 14 14 13 13 13 14 13 13 14 14 14 14 13 13 12 13 13 13 14 13 12 10 7 9 11 8 5 6 7 8 8
21 22 20 20 20 20 20 19 19 18 16 16 17 16 16 16 16 16 15 15 14 15 15 14 13 14 14 14 14 14 14 14 13 13 12 12 12 12 13 14 12 11 9 7 10 12 10 9 8 9 9 9
22 22 21 20 21 21 20 20 20 19 17 17 17 17 16 15 14 15 15 15 15 15 15 14 13 14 14 14 14 14 14 13 13 13 12 12 12 12 13 13 11 10 9 9 12 12 11 11 11 10 10 10
23 22 22 21 22 22 21 21 21 21 19 17 17 17 17 15 13 14 15 15 16 16 15 14 13 13 14 15 14 14 14 14 13 13 13 13 12 13 14 12 10 9 8 11 14 13 12 13 12 11 11 11
24 24 23 23 23 23 23 23 22 22 20 19 18 17 17 16 15 15 15 15 16 16 16 15 14 13 14 15 15 14 14 14 14 13 13 13 13 13 13 11 11 9 10 14 15 14 14 13 13 12 12 12
25 25 24 24 25 25 25 25 24 24 23 22 20 19 19 18 17 16 16 16 16 16 16 16 15 14 14 15 16 15 14 14 14 14 13 14 14 14 14 12 10 10 12 15 15 15 14 14 14 13 13 12
26 26 26 27 27 27 27 27 27 26 25 24 22 21 20 20 19 18 17 17 17 17 17 16 15 14 14 15 16 16 15 15 14 14 14 14 14 16 16 12 9 11 14 16 15 15 14 14 13 13 13 12
28 28 28 28 29 29 29 29 29 28 28 26 25 23 22 22 21 19 19 19 19 18 18 18 17 15 16 17 17 17 17 17 16 15 14 15 17 19 15 10 10 12 15 16 16 15 14 14 13 13 13 13
30 30 30 30 31 31 31 31 30 30 30 28 27 26 24 24 23 21 21 21 20 21 20 20 19 18 19 20 19 19 18 19 19 17 16 17 20 20 16 13 14 14 16 17 17 16 16 15 14 14 13 13
34 33 32 32 33 33 33 32 32 32 31 30 30 28 27 26 25 23 24 23 23 23 22 22 21 20 21 21 21 20 20 20 19 19 19 20 21 22 20 18 17 17 17 18 18 17 16 16 15 15 14 14
37 36 35 35 35 35 35 35 35 34 33 32 32 31 30 29 27 27 26 26 25 25 24 23 23 22 22 22 22 22 22 22 21 21 21 22 23 23 22 21 20 19 19 18 18 18 17 17 16 16 16 16
42 40 38 38 38 37 37 37 37 37 35 35 34 33 32 31 30 30 29 28 27 26 26 26 25 24 23 23 23 24 24 23 23 23 23 23 24 23 23 22 21 21 20 20 19 19 18 18 17 17 17 17
43 44 43 41 41 40 40 40 40 38 37 38 37 35 35 34 33 32 31 30 29 29 28 28 27 26 25 25 25 25 26 25 25 25 25 25 25 25 24 24 23 22 22 21 21 20 19 19 18 18 18 18
34 41 45 46 44 43 43 43 43 41 41 41 39 38 37 36 36 35 34 33 32 31 31 30 30 29 28 27 27 26 27 27 27 27 26 26 26 26 25 25 24 23 23 23 22 22 21 20 19 19 19 18
24 29 36 43 46 47 47 47 46 45 45 44 42 41 41 39 38 37 36 36 35 34 33 33 32 32 31 30 29 28 28 28 28 28 27 27 26 26 26 25 26 25 24 24 24 23 22 21 21 20 20 19
19 22 25 31 37 43 48 49 49 49 48 47 46 45 44 43 42 41 40 39 38 37 36 36 35 34 34 32 31 29 29 29 29 29 29 28 28 27 27 27 27 27 26 26 25 24 23 22 22 21 21 21
17 19 22 24 28 33 38 43 47 49 50 50 49 49 48 46 45 44 43 42 41 40 39 39 38 37 36 35 33 31 31 31 31 31 30 30 30 29 29 29 29 28 27 28 27 25 24 24 23 23 22 22
17 18 20 21 24 26 30 34 37 42 46 48 50 50 50 49 48 48 46 45 45 43 43 42 41 40 39 37 36 34 33 33 32 32 33 32 32 31 31 31 30 29 28 29 28 27 26 25 25 24 24 23
18 17 18 20 21 22 25 28 30 33 37 41 44 46 48 50 50 49 49 48 48 47 46 45 44 43 42 40 39 37 36 35 34 34 34 34 33 33 33 32 32 31 30 30 30 29 28 27 27 26 25 24
24 19 17 17 19 20 21 23 25 28 30 33 35 38 41 45 47 48 49 49 50 50 49 48 48 46 45 43 42 40 39 38 37 36 35 35 34 34 34 34 34 33 31 31 31 30 30 29 28 27 26 26
26 25 22 18 17 17 19 20 21 22 24 27 29 32 34 37 39 41 43 45 47 49 49 50 50 49 49 47 44 43 42 41 40 38 37 36 35 35 36 35 35 34 33 32 32 31 31 30 30 29 28 27
23 24 24 23 22 18 15 16 18 19 21 22 24 26 29 32 33 34 35 38 41 43 45 47 48 49 50 49 47 46 45 44 43 41 39 38 37 36 37 37 36 35 34 33 33 33 32 32 31 30 30 29
23 21 22 22 24 23 19 16 13 14 16 18 20 22 24 26 29 31 32 33 35 37 39 42 44 46 48 49 48 48 49 48 47 45 43 41 39 38 37 37 37 36 35 34 34 34 34 33 33 32 31 31
28 25 23 22 22 22 22 20 18 15 12 12 14 17 19 21 23 25 28 31 32 33 35 38 40 42 44 45 46 49 51 52 51 49 46 43 40 38 38 38 38 38 37 36 35 35 35 34 34 33 33 32
32 30 28 25 22 21 20 21 20 18 17 16 14 13 14 16 18 19 22 25 28 31 32 34 36 39 41 43 45 48 50 52 52 50 47 44 42 40 39 39 40 39 38 36 36 36 36 37 36 35 33 33
31 31 30 28 26 23 20 19 19 19 19 18 17 16 15 15 15 15 17 19 22 26 29 31 33 36 39 41 42 45 47 49 50 50 49 47 45 43 41 40 40 40 38 37 38 36 32 31 33 35 36 35
29 29 29 27 26 26 23 20 19 18 19 20 19 19 18 18 17 16 16 16 18 21 24 27 30 34 36 37 39 41 43 46 48 49 50 50 48 45 42 41 41 41 38 38 37 31 25 21 21 27 33 36
30 28 28 26 25 27 26 23 21 19 19 20 20 20 20 20 20 19 18 17 18 19 20 22 25 29 32 34 36 38 40 43 46 47 49 50 49 47 44 43 44 42 38 39 37 30 25 19 17 19 22 26
32 29 27 26 26 26 25 23 21 20 19 19 18 18 19 19 20 20 19 18 18 20 20 19 20 23 28 30 32 35 38 41 43 45 46 48 48 48 46 44 44 42 39 41 41 36 26 17 17 19 16 16
33 29 25 23 23 23 22 21 20 20 21 20 18 17 16 16 17 18 18 17 16 18 20 21 20 20 23 26 29 31 34 37 40 42 44 45 47 48 47 45 44 44 41 41 43 42 35 28 24 19 17 17
32 28 26 23 21 20 19 19 19 19 20 20 20 19 17 15 14 14 15 15 15 16 17 20 21 21 21 22 25 28 30 34 37 40 41 43 44 46 46 45 46 46 44 42 43 44 42 42 39 29 23 21
Wind_Direction
220 220 212 203 204 204 202 202 202 205 203 193 192 192 192 190 190 194 194 201 202 195 192 197 201 193 191 193 191 194 194 195 196 196 195 192 193 192 194 205 206 213 217 214 255 289 310 305 287 272 266 256
220 220 215 207 206 207 205 205 204 207 207 197 195 195 196 197 196 199 201 204 206 199 194 193 199 196 192 194 193 194 195 197 197 197 196 194 196 193 197 202 199 210 212 221 270 298 310 305 291 278 270 261
222 220 216 211 209 210 209 208 208 210 210 203 202 203 206 211 206 204 204 205 208 206 201 196 198 197 193 194 195 194 195 197 198 199 197 197 198 195 198 198 200 211 215 246 282 299 304 300 291 283 277 269
225 223 218 214 212 212 213 212 212 213 213 209 208 210 214 221 219 212 210 209 210 212 211 208 206 202 196 193 195 196 197 198 198 199 199 200 200 198 201 197 202 215 230 265 288 296 296 294 289 285 280 275
227 226 222 217 215 214 215 215 216 217 217 214 211 214 218 224 225 220 219 216 215 216 218 219 215 212 206 197 195 198 199 200 199 200 200 202 203 200 201 200 209 229 254 275 288 292 292 289 286 284 280 277
230 229 226 221 218 216 217 217 218 219 219 218 213 212 218 223 226 225 225 223 222 221 222 225 221 217 217 208 201 200 200 202 201 200 201 204 206 203 205 210 222 247 267 277 282 284 284 282 281 280 278 275
232 231 229 226 222 219 219 219 220 220 221 222 218 214 216 221 226 226 226 226 226 225 226 229 226 219 220 220 214 208 203 204 205 203 203 205 207 210 215 227 245 259 268 273 274 275 275 274 275 274 273 270
236 233 231 230 228 224 222 222 222 222 222 224 223 221 218 219 224 225 224 226 227 225 226 229 229 220 220 226 225 221 212 207 207 205 206 205 209 217 225 246 263 263 266 269 271 273 272 271 271 269 269 267
240 237 234 233 232 229 227 226 226 225 225 226 227 227 223 221 223 223 223 226 226 226 226 228 230 224 220 227 232 231 225 221 216 210 210 212 219 230 242 259 267 266 264 267 270 272 272 272 272 270 269 268
244 241 239 237 236 234 231 230 230 229 229 229 230 229 228 227 225 223 224 226 227 228 229 229 231 229 225 229 234 235 234 234 232 225 224 227 234 244 253 262 266 265 264 266 268 270 272 273 273 272 272 270
245 245 243 241 240 239 237 235 234 233 232 233 233 232 231 231 228 226 226 227 228 230 231 231 233 233 231 231 233 236 238 239 240 238 236 238 244 251 256 261 263 263 262 264 265 267 269 270 272 272 272 271
244 245 245 244 243 243 242 239 238 237 236 236 235 234 235 234 232 231 229 229 230 232 233 234 235 236 235 235 233 235 238 240 241 240 240 241 246 250 254 256 258 260 260 261 262 264 265 267 269 270 271 271
247 246 245 245 245 245 245 243 242 241 239 239 238 237 237 236 236 235 233 233 233 233 235 236 238 238 238 238 237 236 237 240 241 240 240 241 244 247 250 253 255 257 258 259 260 261 262 264 265 267 269 270
256 251 249 247 247 246 246 246 245 244 242 241 241 240 240 239 239 239 237 236 236 236 236 237 239 239 239 240 240 239 239 241 242 242 242 242 244 246 248 250 252 254 256 257 257 258 260 261 263 265 266 268
266 261 257 254 251 249 248 247 247 245 244 244 243 242 242 241 241 241 241 240 239 239 237 238 239 240 240 241 241 241 242 243 243 244 244 244 245 246 247 249 250 251 253 254 254 256 258 259 261 263 265 266
273 270 268 264 260 256 253 251 250 248 246 245 244 243 243 242 242 242 242 242 242 241 240 240 240 240 241 242 242 243 243 244 244 244 244 244 244 245 245 246 248 249 250 252 253 254 256 258 259 261 263 264
276 273 270 268 266 264 261 258 255 253 251 249 247 245 244 243 243 243 243 243 244 244 242 242 241 241 243 243 244 243 243 244 244 244 243 243 242 243 243 244 247 248 249 251 253 253 255 256 258 259 261 262
287 278 272 268 267 266 265 263 261 259 257 255 252 250 249 247 245 244 244 244 244 245 244 244 243 243 243 243 244 243 243 243 243 244 243 243 242 243 244 245 247 248 249 251 252 253 253 255 256 258 259 261
327 302 285 275 269 266 265 263 263 262 260 259 258 256 254 252 250 248 246 245 245 245 245 245 245 245 244 243 243 243 242 242 242 243 243 244 243 244 244 245 246 247 247 248 250 252 252 253 255 256 258 259
3 348 323 298 281 270 265 263 261 262 262 261 260 259 257 256 254 252 251 249 248 248 247 246 247 246 245 244 243 242 242 242 242 242 243 244 243 244 245 245 246 246 246 247 249 250 251 252 254 255 256 258
7 7 1 347 322 293 276 268 263 262 262 262 261 260 258 257 257 255 253 252 251 251 250 249 248 248 247 246 244 243 243 242 242 242 242 243 243 243 244 244 244 245 245 246 248 249 250 251 253 253 255 257
358 359 1 3 1 346 316 290 275 267 265 264 263 261 259 257 256 255 253 252 252 251 251 251 250 250 249 248 246 244 243 242 242 242 241 242 242 241 242 243 244 245 244 245 246 248 249 250 251 252 254 255
349 348 349 351 358 360 355 344 321 293 277 270 266 263 262 260 257 254 251 249 249 249 249 249 249 249 249 249 246 245 243 242 241 240 239 239 240 240 240 242 243 243 244 243 244 245 247 248 250 251 252 254
345 343 341 341 343 348 350 351 350 343 328 307 287 274 267 262 258 255 252 249 247 246 246 247 247 248 248 248 246 245 243 241 240 239 238 238 240 239 238 239 240 240 240 240 241 243 244 246 248 249 251 253
342 341 340 338 336 336 336 338 341 344 345 342 333 313 293 278 266 257 254 251 248 245 243 243 246 247 246 246 245 244 243 242 241 240 239 239 240 239 238 238 238 238 238 236 237 240 243 246 249 250 250 252
338 338 337 336 334 330 326 326 328 331 333 335 338 337 331 319 301 280 266 258 253 249 245 243 243 245 245 245 246 245 245 244 243 242 239 238 238 237 237 238 240 240 237 234 235 237 241 246 249 251 250 249
336 333 332 330 329 329 325 319 317 317 319 321 325 331 334 333 329 316 296 277 263 255 248 244 243 244 245 245 245 245 245 245 243 241 239 237 237 237 237 236 238 239 237 235 234 231 232 234 238 248 250 248
335 331 331 328 325 327 327 325 322 317 315 316 319 325 328 329 330 329 321 303 282 267 256 247 244 246 245 244 244 244 245 245 243 241 240 238 236 236 235 234 236 238 237 234 230 223 223 224 225 238 245 246
336 332 332 330 326 326 327 328 327 324 321 319 319 321 323 324 324 325 325 319 300 283 271 258 249 248 249 247 245 244 244 245 245 244 242 240 237 236 236 236 238 241 238 234 232 228 222 216 222 229 227 231
336 332 329 329 328 327 326 325 325 324 321 319 318 316 315 315 316 317 319 320 310 293 281 270 259 252 252 251 248 246 245 245 246 246 244 242 239 238 238 238 239 241 240 235 235 235 230 226 229 226 215 216
333 328 325 324 325 325 322 320 319 319 318 316 314 311 309 309 307 307 309 312 312 301 289 279 268 259 255 253 250 248 246 245 246 247 246 244 241 240 239 238 238 240 241 237 235 236 233 234 237 232 223 218
Height
1496 1496 1496 1495 1496 1496 1497 1497 1497 1497 1498 1498 1499 1500 1500 1501 1501 1501 1502 1502 1503 1504 1505 1505 1505 1506 1508 1509 1511 1512 1512 1513 1513 1513 1514 1514 1515 1516 1517 1517 1517 1515 1513 1513 1512 1513 1515 1516 1516 1517 1517 1518
1494 1494 1494 1494 1495 1495 1495 1496 1496 1496 1496 1497 1498 1499 1499 1499 1499 1500 1500 1501 1502 1503 1503 1504 1504 1505 1506 1508 1509 1510 1510 1511 1511 1512 1512 1513 1514 1515 1515 1515 1515 1513 1512 1512 1511 1511 1512 1513 1515 1515 1515 1516
1492 1493 1493 1493 1493 1494 1494 1494 1495 1495 1495 1496 1497 1497 1498 1497 1498 1499 1499 1500 1501 1501 1502 1502 1502 1503 1504 1506 1507 1507 1509 1509 1510 1510 1511 1512 1512 1513 1513 1513 1512 1511 1511 1510 1510 1510 1511 1512 1513 1513 1514 1514
1491 1491 1491 1492 1492 1492 1493 1493 1493 1494 1494 1494 1495 1496 1496 1496 1497 1498 1498 1499 1499 1500 1500 1500 1501 1501 1502 1504 1505 1506 1507 1507 1508 1509 1509 1510 1511 1511 1511 1511 1510 1509 1509 1508 1508 1509 1510 1511 1511 1511 1512 1512
1489 1490 1490 1490 1490 1491 1491 1491 1492 1492 1492 1493 1493 1494 1495 1495 1496 1496 1497 1497 1498 1498 1499 1499 1499 1500 1501 1502 1504 1505 1505 1506 1506 1507 1508 1509 1509 1509 1509 1508 1508 1507 1507 1507 1507 1508 1509 1509 1509 1509 1510 1510
1487 1488 1488 1489 1489 1489 1489 1490 1490 1491 1491 1491 1491 1492 1493 1494 1494 1495 1495 1496 1496 1497 1497 1497 1498 1499 1500 1500 1502 1503 1504 1504 1505 1505 1506 1507 1507 1507 1507 1506 1506 1505 1506 1506 1506 1507 1508 1508 1507 1508 1508 1508
1486 1486 1487 1487 1487 1487 1487 1488 1488 1489 1489 1489 1490 1490 1491 1492 1493 1494 1494 1494 1495 1495 1496 1496 1497 1498 1498 1499 1499 1500 1502 1503 1503 1504 1504 1505 1506 1505 1504 1503 1504 1504 1504 1505 1505 1506 1506 1506 1506 1506 1506 1507
1484 1484 1485 1485 1485 1485 1485 1485 1486 1487 1487 1487 1488 1488 1489 1490 1491 1492 1492 1493 1493 1494 1494 1494 1495 1496 1496 1497 1497 1498 1499 1500 1501 1502 1503 1503 1503 1501 1501 1502 1502 1503 1503 1503 1504 1504 1504 1504 1504 1505 1505 1505
1481 1482 1482 1483 1483 1483 1483 1483 1483 1484 1484 1485 1486 1486 1487 1487 1488 1489 1490 1490 1491 1492 1492 1492 1493 1494 1494 1494 1495 1495 1496 1497 1498 1499 1500 1500 1499 1498 1499 1500 1500 1501 1501 1501 1502 1502 1502 1502 1502 1503 1503 1503
1479 1479 1479 1480 1480 1480 1480 1480 1480 1481 1482 1482 1483 1483 1484 1484 1485 1487 1487 1488 1489 1489 1490 1490 1491 1491 1492 1492 1492 1493 1494 1494 1495 1496 1496 1496 1496 1496 1497 1498 1498 1499 1499 1499 1500 1500 1500 1500 1500 1500 1500 1500
1476 1476 1476 1477 1477 1477 1477 1477 1477 1477 1478 1479 1479 1480 1481 1481 1482 1483 1484 1485 1486 1486 1487 1488 1488 1489 1489 1490 1490 1490 1491 1491 1492 1493 1493 1494 1494 1494 1494 1495 1496 1496 1497 1497 1497 1497 1497 1497 1498 1498 1498 1498
1473 1473 1474 1474 1474 1474 1474 1474 1474 1474 1476 1475 1476 1477 1477 1478 1479 1480 1480 1481 1482 1483 1484 1485 1485 1486 1486 1487 1487 1488 1488 1489 1489 1490 1490 1491 1491 1491 1492 1492 1493 1494 1494 1495 1495 1495 1495 1495 1496 1496 1496 1496
1470 1470 1470 1471 1471 1471 1471 1471 1471 1472 1473 1472 1473 1474 1474 1475 1475 1476 1477 1478 1479 1480 1480 1481 1482 1483 1483 1484 1484 1485 1485 1485 1486 1486 1487 1488 1488 1489 1489 1490 1491 1492 1492 1492 1493 1493 1493 1493 1494 1494 1494 1494
1465 1466 1467 1467 1467 1468 1468 1468 1469 1470 1470 1469 1470 1470 1471 1471 1472 1472 1473 1474 1475 1476 1477 1477 1478 1479 1480 1480 1481 1482 1482 1482 1483 1483 1484 1485 1486 1486 1487 1488 1488 1489 1490 1490 1491 1491 1491 1491 1491 1491 1492 1492
1460 1461 1462 1463 1464 1464 1464 1464 1465 1466 1466 1466 1467 1467 1467 1468 1468 1469 1469 1470 1471 1472 1473 1473 1474 1475 1476 1477 1478 1479 1479 1479 1480 1480 1481 1482 1483 1483 1484 1485 1485 1486 1487 1487 1488 1488 1488 1489 1489 1489 1489 1490
1457 1457 1457 1458 1458 1459 1459 1460 1460 1461 1461 1462 1463 1463 1463 1464 1465 1465 1465 1466 1467 1468 1469 1469 1470 1471 1472 1473 1474 1475 1476 1476 1477 1477 1478 1479 1480 1480 1481 1482 1482 1483 1484 1484 1485 1485 1486 1486 1486 1486 1487 1487
1454 1454 1453 1453 1453 1453 1454 1454 1456 1456 1457 1457 1458 1458 1459 1460 1461 1461 1462 1463 1463 1464 1465 1466 1467 1467 1468 1470 1471 1472 1472 1473 1474 1474 1475 1475 1476 1477 1478 1478 1479 1480 1481 1481 1482 1482 1483 1483 1483 1484 1484 1484
1453 1451 1450 1450 1449 1449 1448 1449 1450 1450 1451 1452 1452 1453 1454 1455 1456 1457 1458 1459 1459 1460 1461 1462 1462 1464 1465 1466 1467 1468 1469 1469 1470 1471 1471 1472 1473 1474 1475 1475 1476 1477 1478 1478 1479 1479 1480 1481 1481 1481 1481 1482
1452 1450 1449 1447 1446 1445 1445 1444 1444 1444 1445 1446 1446 1448 1449 1449 1451 1452 1454 1454 1455 1456 1457 1458 1458 1460 1461 1462 1463 1464 1465 1466 1466 1467 1467 1469 1470 1471 1471 1472 1473 1474 1475 1476 1476 1477 1477 1478 1478 1478 1479 1479
1452 1450 1447 1446 1444 1442 1441 1441 1440 1440 1440 1440 1440 1441 1442 1443 1444 1446 1448 1449 1450 1451 1452 1453 1454 1455 1456 1458 1460 1461 1461 1462 1462 1463 1464 1465 1466 1467 1468 1469 1470 1471 1472 1473 1473 1474 1474 1475 1475 1476 1476 1476
1453 1451 1448 1445 1442 1440 1439 1438 1437 1436 1436 1435 1436 1436 1436 1436 1437 1439 1441 1443 1444 1445 1446 1447 1448 1450 1451 1453 1455 1457 1457 1457 1458 1459 1460 1461 1462 1463 1464 1465 1466 1467 1469 1469 1470 1471 1471 1472 1472 1473 1473 1473
1453 1451 1448 1445 1442 1440 1438 1436 1434 1433 1432 1431 1431 1431 1431 1431 1431 1432 1434 1436 1437 1438 1440 1441 1442 1444 1445 1447 1450 1451 1452 1453 1453 1454 1455 1455 1456 1458 1459 1460 1461 1462 1464 1465 1466 1467 1468 1469 1469 1470 1470 1470
1451 1449 1447 1445 1442 1440 1438 1435 1433 1431 1429 1428 1427 1427 1426 1426 1426 1426 1427 1428 1430 1431 1433 1434 1435 1437 1438 1440 1443 1445 1446 1447 1447 1448 1449 1450 1451 1453 1454 1455 1456 1458 1460 1461 1462 1463 1464 1465 1466 1466 1466 1466
1449 1446 1444 1442 1441 1439 1437 1435 1432 1430 1427 1426 1425 1424 1423 1422 1421 1421 1421 1422 1423 1424 1426 1427 1429 1430 1431 1433 1436 1438 1439 1440 1440 1442 1444 1446 1447 1449 1451 1451 1452 1454 1455 1457 1458 1459 1460 1460 1461 1462 1462 1462
1447 1444 1441 1439 1437 1436 1435 1433 1431 1428 1426 1425 1424 1423 1422 1420 1418 1417 1416 1417 1418 1418 1419 1420 1422 1423 1425 1426 1428 1430 1431 1433 1435 1438 1441 1443 1444 1445 1446 1447 1448 1449 1451 1453 1454 1454 1455 1456 1457 1458 1458 1458
1445 1443 1440 1437 1435 1433 1432 1430 1428 1426 1425 1423 1422 1421 1420 1418 1416 1415 1413 1413 1413 1413 1414 1414 1415 1416 1418 1420 1422 1424 1426 1428 1431 1433 1436 1437 1438 1439 1441 1442 1443 1445 1447 1449 1449 1451 1453 1453 1453 1453 1453 1453
1443 1441 1439 1436 1433 1430 1428 1427 1425 1423 1422 1420 1419 1418 1417 1416 1415 1414 1412 1411 1410 1410 1409 1409 1410 1411 1412 1414 1416 1419 1421 1422 1424 1426 1429 1431 1432 1434 1436 1437 1437 1439 1442 1444 1446 1449 1450 1450 1450 1449 1447 1447
1442 1438 1436 1433 1430 1428 1425 1423 1421 1419 1418 1416 1415 1414 1413 1413 1412 1412 1411 1410 1409 1408 1407 1406 1406 1406 1407 1409 1411 1413 1415 1416 1418 1420 1422 1425 1427 1429 1431 1431 1431 1433 1437 1439 1441 1443 1444 1446 1447 1444 1442 1442
1439 1436 1433 1430 1427 1424 1422 1421 1419 1417 1415 1413 1412 1411 1410 1410 1409 1409 1408 1408 1407 1406 1405 1403 1403 1402 1403 1404 1406 1408 1410 1411 1413 1415 1417 1420 1422 1423 1425 1426 1426 1428 1431 1433 1434 1436 1439 1441 1440 1438 1438 1439
1437 1434 1431 1427 1424 1421 1418 1417 1416 1414 1412 1410 1408 1407 1407 1407 1406 1406 1406 1405 1405 1404 1403 1401 1400 1400 1399 1400 1401 1403 1405 1407 1408 1410 1412 1414 1417 1418 1420 1423 1422 1422 1425 1427 1428 1430 1432 1433 1433 1433 1435 1436
1435 1432 1429 1425 1421 1418 1416 1413 1412 1410 1409 1407 1406 1405 1404 1404 1403 1403 1402 1402 1402 1401 1400 1398 1397 1398 1397 1397 1397 1398 1400 1402 1403 1405 1407 1410 1412 1414 1417 1418 1417 1417 1419 1422 1422 1424 1426 1426 1427 1430 1430 1432